Tracking 19485 objects as of 21-Jan-2019
HD Live streaming from Space Station
objects crossing your sky now

GORIZONT 22

Track GORIZONT 22 now!
GORIZONT 22 is classified as:


NORAD ID: 20953
Int'l Code: 1990-102A
Perigee: 35,761.7 km
Apogee: 35,829.1 km
Inclination: 14.9 °
Period: 1,436.2 minutes
Semi major axis: 42166 km
RCS: 3.5481 m2 (large)
Launch date: November 23, 1990
Source: Commonwealth of Independent States (former USSR) (CIS)
Launch site: TYURATAM MISSILE AND SPACE COMPLEX (TTMTR)
aabbcc
Your satellite tracking list
Your tracking list is empty




NASA's NSSDC Master Catalog

Two Line Element Set (TLE):
1 20953U 90102A   19020.81087884 -.00000293 +00000-0 +00000-0 0  9992
2 20953 014.8759 359.5188 0007989 309.5479 243.6506 01.00265935103252
Source of the keplerian elements: AFSPC